User: anonymous   Login
Location: Stanford
(52.2833°N, 2.4333°W)
Time: 11:23:23
(UTC+00:00)
Language:

MOS 1 Rocket - Orbit

View from above orbital plane
View from above orbital plane
View from above satellite
View from above satellite

Ground track
Ground track

The orbit data is extracted from the following two-line orbital elements,

1 17528U 87018B   21100.74780281  .00000084  00000-0  28114-4 0  9990
2 17528  97.4059 280.7449 0150185 250.0824 108.4140 14.51042793781330
Epoch (UTC): 10 April 2021 17:56:50
Eccentricity: 0.0150185
inclination: 97.4059°
perigee height: 615 km
apogee height: 829 km
right ascension of ascending node: 280.7449°
argument of perigee: 250.0824°
revolutions per day: 14.51042793
mean anomaly at epoch: 108.4140°
orbit number at epoch: 78133

The dashed part of the orbit path shows where the satellite is in the earth's shadow,  

DLR